Temperature
26 27 27 27 27 26 26 26 25 24 22 22 23 23 22 20 19 19 19 19 19 18 17 16 15 15 14 14 13 13 13 12 12 12 12 12 12 12 12 12 13 13 13 13
27 26 26 26 25 26 26 25 25 23 22 22 23 23 23 21 20 20 20 19 19 18 17 17 16 15 14 14 13 13 13 12 12 12 12 12 12 12 12 12 12 13 13 13
27 26 25 25 25 25 25 25 24 23 22 22 22 23 23 22 20 19 18 18 18 17 17 17 16 15 14 14 13 13 12 12 12 12 12 12 12 12 12 12 12 12 13 13
25 24 25 25 25 25 24 23 23 22 23 23 22 23 23 22 21 20 19 19 18 17 17 16 15 15 14 14 13 13 12 12 12 11 12 11 11 12 12 12 12 12 12 13
24 24 25 25 24 24 23 22 22 22 23 23 22 23 24 22 22 22 20 19 18 17 16 16 15 15 14 13 13 12 12 12 11 11 11 11 11 11 11 12 12 12 12 12
24 23 24 24 22 22 22 22 22 22 23 23 23 22 23 23 22 22 20 19 18 17 16 16 15 14 14 13 13 12 12 12 11 11 11 11 11 11 11 11 12 12 12 12
24 23 23 23 23 22 23 23 23 23 23 23 22 22 23 23 22 21 20 19 18 17 17 16 15 15 14 13 13 12 12 12 11 11 11 11 11 11 11 11 11 11 12 12
24 23 23 23 24 23 23 24 23 23 23 23 22 22 23 22 20 19 19 18 18 17 17 16 15 15 14 13 13 13 12 12 12 11 11 11 11 11 11 11 11 11 11 11
25 23 22 22 22 23 23 23 23 23 22 23 23 23 23 21 21 20 19 18 18 17 17 16 15 15 14 14 13 13 12 12 12 11 11 11 11 11 11 11 11 11 11 11
26 23 22 21 22 21 23 22 22 22 22 23 23 23 23 23 22 22 20 19 18 18 17 16 15 15 14 14 13 13 13 12 12 11 11 11 11 11 11 10 10 11 11 11
26 25 22 22 22 23 21 21 22 22 22 22 22 23 23 22 22 21 21 19 18 18 17 16 16 15 14 14 14 13 13 12 12 12 11 11 11 10 10 10 10 10 10 11
24 25 24 23 21 21 22 22 22 22 22 21 22 23 22 22 21 20 20 19 18 17 17 16 16 15 15 14 14 13 13 13 12 12 11 11 11 10 10 10 10 10 10 10
23 24 23 22 21 21 21 21 21 21 22 22 22 23 22 22 21 20 19 19 18 17 17 16 16 15 15 14 14 14 13 13 12 12 11 11 11 10 10 10 10 10 10 10
22 24 24 24 24 23 21 20 20 21 22 22 22 23 23 23 22 21 20 19 18 18 17 17 16 16 15 15 14 14 13 13 12 12 11 11 11 10 10 10 10 10 10 10
23 24 24 23 22 22 22 21 20 21 22 22 23 22 22 23 21 20 19 19 18 18 17 17 16 16 15 15 15 14 13 13 13 12 11 11 11 10 10 10 10 10 10 10
23 24 23 22 22 22 22 22 21 21 21 21 21 22 23 22 20 20 20 19 19 18 18 17 17 16 16 16 15 14 14 13 13 12 12 11 11 10 10 10 10 10 10 10
23 23 23 23 22 22 23 23 22 22 22 22 22 23 23 22 21 20 20 19 19 18 18 17 17 17 16 16 15 14 14 13 13 12 12 11 11 10 10 10 10 10 10 10
23 23 23 23 22 22 24 23 23 22 22 22 22 22 21 21 20 19 19 19 19 18 18 17 17 16 16 16 15 14 14 14 13 12 12 11 11 11 10 10 10 10 10 10
22 23 23 23 23 23 23 22 22 22 23 22 22 22 21 20 20 21 19 18 18 18 18 17 17 17 16 16 15 15 14 14 13 13 12 12 11 11 11 10 10 10 10 10
20 22 23 22 23 23 24 22 21 23 23 22 21 21 21 21 23 22 19 18 18 18 18 17 17 17 16 16 15 15 15 14 14 13 13 12 12 11 11 11 11 10 10 10
21 21 22 22 23 24 22 20 21 22 23 21 20 20 20 21 21 19 18 18 18 18 18 18 17 17 16 16 15 15 15 15 14 14 13 13 12 12 12 11 11 11 11 10
23 22 22 22 22 23 19 21 22 23 20 19 19 19 19 18 18 17 17 18 18 18 18 18 17 17 16 16 16 15 15 15 14 14 14 13 13 12 12 12 12 11 11 11
23 24 24 24 23 19 16 18 16 16 18 18 17 17 17 17 17 17 17 17 18 18 17 17 17 17 16 16 16 16 15 15 15 14 14 14 13 13 13 12 12 11 11 11
22 19 21 21 20 17 15 14 14 14 15 15 15 16 16 16 16 16 16 17 17 17 17 17 17 17 16 16 16 16 15 15 15 15 14 14 14 13 13 13 12 12 11 11
22 20 21 22 20 16 14 14 13 13 14 14 14 15 15 15 15 15 15 16 16 16 16 16 16 16 16 15 15 15 15 15 15 15 14 14 14 14 13 13 13 13 12 12
21 21 22 23 21 19 17 14 13 13 13 13 13 14 14 14 14 14 14 15 15 15 15 15 15 15 15 15 14 15 15 15 14 14 14 14 14 14 14 13 13 13 13 13
Wind_Speed
6 8 8 6 4 2 2 4 4 1 1 5 8 8 5 7 9 9 8 6 6 5 5 5 6 7 8 9 10 10 11 11 9 8 8 8 8 8 7 6 7 7 8 8
9 7 4 5 4 3 2 3 2 2 1 4 6 9 6 7 9 8 8 7 6 6 6 5 6 7 8 9 10 10 10 10 10 8 8 7 8 7 7 6 7 7 7 7
9 6 7 7 6 3 1 2 2 1 2 3 6 6 5 5 7 8 9 8 7 6 7 7 7 8 8 9 9 9 10 10 9 9 7 7 7 6 6 7 7 7 8 7
7 6 7 6 4 1 1 2 2 2 5 2 3 3 2 2 5 8 8 8 7 5 5 6 7 8 8 8 8 9 9 9 9 9 8 10 8 8 8 8 7 8 7 7
7 7 6 4 3 0 3 3 2 3 4 5 3 5 1 2 3 2 4 5 5 5 5 5 6 7 7 8 7 8 8 8 8 8 8 8 8 8 8 8 8 8 7 6
8 5 3 4 4 3 6 5 3 4 5 4 1 4 2 0 3 2 1 2 3 4 4 5 5 5 6 6 6 6 7 8 8 8 8 8 9 9 10 10 9 8 7 6
7 6 4 4 5 4 5 5 4 5 4 1 1 4 3 2 3 4 4 3 2 3 4 4 5 6 6 6 6 6 7 7 7 8 8 8 9 9 9 10 9 9 7 7
8 6 4 2 1 2 2 4 4 3 2 0 3 4 1 1 3 4 4 4 4 4 4 4 5 5 5 6 6 6 7 7 7 7 8 8 8 7 7 9 9 8 7 8
6 5 5 3 2 1 3 2 3 3 2 3 2 2 2 2 3 4 5 5 5 5 4 5 5 5 5 5 5 6 6 7 7 7 7 8 8 8 9 9 9 8 8 8
3 6 6 5 4 4 2 2 3 3 3 2 2 2 1 1 3 3 4 5 5 5 5 4 4 5 5 5 5 5 6 6 6 7 7 7 8 8 8 9 9 10 10 9
3 5 7 6 5 3 4 3 3 2 3 3 2 2 2 3 4 5 5 4 4 5 5 4 4 5 5 5 5 5 5 6 6 7 7 7 7 8 8 8 9 9 9 10
1 3 5 4 2 1 3 3 4 4 2 2 3 1 3 3 5 7 7 5 5 5 5 5 5 5 5 5 5 5 5 5 5 6 7 7 7 8 8 9 9 9 10 9
5 5 5 5 5 5 5 4 4 3 3 3 3 0 3 3 6 6 6 6 5 6 6 6 5 5 5 5 5 5 5 5 5 5 6 7 7 8 8 9 9 10 10 9
3 5 5 2 2 5 6 7 7 7 4 4 5 6 7 8 7 6 5 5 6 6 6 6 6 6 5 5 5 5 5 4 4 4 5 6 7 7 8 8 9 9 10 9
4 5 4 2 2 3 5 8 10 10 6 5 5 8 10 9 7 7 5 4 5 6 7 7 6 6 5 5 5 5 4 4 4 4 5 6 6 7 7 8 8 9 8 9
5 5 6 5 3 5 6 8 10 10 8 8 9 8 4 6 5 6 5 4 5 6 6 6 6 6 6 5 5 4 4 4 4 4 5 5 6 6 7 8 8 8 8 8
7 6 6 6 4 4 8 10 11 6 7 6 4 3 6 7 6 6 5 4 5 5 5 5 6 5 5 5 5 5 4 4 4 5 5 5 6 6 7 7 8 8 8 8
7 7 5 4 6 7 3 4 6 6 5 7 7 7 7 8 8 6 5 6 5 4 5 5 5 5 5 5 4 4 4 5 5 5 5 5 5 6 6 7 8 8 8 8
3 6 5 5 6 4 4 5 6 6 4 3 5 4 5 5 5 1 2 4 5 4 4 4 4 5 5 5 5 5 5 5 5 5 6 5 5 6 7 7 7 7 8 8
2 5 6 5 6 6 6 7 3 4 5 3 3 3 4 4 2 3 6 5 4 4 3 4 4 5 5 5 5 6 6 6 6 6 6 5 5 6 7 7 7 7 7 7
8 6 9 8 7 4 5 5 5 7 3 3 1 2 3 3 5 6 6 5 4 3 3 3 4 5 5 5 5 7 8 7 6 5 6 6 6 6 7 7 6 7 7 7
10 8 8 7 8 5 6 8 7 1 3 1 1 2 3 4 4 5 5 5 5 4 3 3 4 4 5 5 6 8 9 8 6 6 7 8 8 7 6 6 7 7 7 7
8 6 5 6 3 4 3 3 1 1 2 1 1 2 2 2 3 4 5 5 5 5 5 4 4 5 5 5 6 9 9 7 7 8 9 9 9 8 7 7 7 7 6 6
7 4 5 5 5 5 4 3 2 2 2 0 1 1 1 2 3 4 5 6 6 7 6 5 5 5 6 6 6 8 9 8 9 10 10 10 9 9 8 7 7 7 6 6
7 9 7 7 5 7 7 6 5 4 4 4 5 5 4 4 5 6 6 7 7 7 7 7 6 7 8 8 8 8 8 9 10 11 11 10 10 10 9 8 7 8 8 7
9 9 10 9 11 10 9 10 9 8 7 6 6 7 7 7 7 7 7 8 8 9 9 8 8 9 9 9 10 10 10 9 10 10 10 9 9 8 8 9 9 11 12 9
Wind_Direction
171 194 198 192 212 296 285 275 282 90 149 240 257 268 243 215 224 235 242 256 282 310 324 336 334 336 335 340 342 345 345 346 343 340 336 335 334 327 324 320 315 306 297 288
174 180 128 119 134 156 201 258 261 155 154 262 277 275 260 228 233 245 257 267 282 303 315 331 332 339 340 341 343 342 346 347 346 342 331 326 323 319 322 320 318 312 303 296
189 131 136 146 148 162 164 283 272 234 188 221 287 265 218 217 230 241 250 262 279 294 310 327 333 336 339 343 343 341 344 345 348 343 338 334 330 320 331 333 327 320 311 300
113 123 149 148 125 262 171 103 177 215 255 264 294 296 170 203 239 242 247 252 263 278 297 317 324 332 338 343 340 339 345 347 349 345 345 344 340 337 333 329 325 320 314 304
120 138 153 140 96 45 100 121 180 241 264 269 234 274 171 167 273 263 249 251 259 268 292 311 322 328 333 339 338 338 344 347 349 347 345 337 340 337 333 333 332 327 322 314
107 103 76 102 95 99 139 156 162 212 243 248 211 273 283 103 326 326 284 255 252 261 283 299 314 319 329 338 337 336 340 345 346 343 343 344 341 338 338 340 338 331 325 319
128 117 106 137 145 148 205 241 234 216 218 214 111 265 282 15 313 287 289 289 264 265 284 299 311 319 328 333 336 332 337 341 344 343 344 346 345 339 338 337 335 332 329 325
172 156 136 156 238 194 206 266 283 287 286 237 199 254 337 24 292 270 263 264 264 268 281 293 303 308 313 321 327 328 332 336 339 340 343 344 344 338 339 339 336 332 327 323
191 140 118 98 100 223 195 217 334 288 283 268 217 259 269 193 253 250 253 254 260 267 275 283 293 299 303 309 319 320 322 329 335 336 337 338 342 342 340 338 337 334 329 324
164 146 151 144 148 61 1 146 210 249 272 261 238 239 323 326 331 305 273 267 266 260 266 275 284 290 294 300 306 308 310 318 326 330 333 333 334 336 336 335 339 336 333 330
188 170 158 183 215 197 170 190 224 249 280 291 300 115 67 327 320 309 299 281 266 257 260 271 283 288 287 287 291 298 305 312 322 327 330 330 334 334 334 338 339 336 335 333
151 212 179 168 115 357 243 235 225 255 230 261 284 271 123 273 295 291 286 276 256 250 253 264 275 283 281 285 294 299 306 313 319 323 326 329 331 334 336 340 340 339 339 337
161 199 181 170 181 191 207 204 219 246 249 239 259 56 124 293 304 294 276 269 251 243 246 256 265 275 281 284 291 295 301 306 315 320 325 330 335 339 339 340 340 339 340 339
213 216 239 250 125 163 186 191 201 216 241 248 252 295 321 328 328 323 297 268 250 242 244 253 263 270 273 278 285 292 300 298 306 316 324 332 337 339 336 340 339 340 342 342
223 218 200 146 119 183 202 197 201 221 250 269 296 299 308 324 324 316 303 273 250 244 245 250 258 270 271 273 280 288 294 290 297 310 322 332 334 334 333 336 336 340 342 341
211 204 186 184 190 217 231 220 213 228 247 258 278 289 304 317 308 301 293 268 256 251 249 253 257 263 268 271 281 292 289 285 288 303 320 328 324 330 330 332 335 338 340 341
190 199 205 201 174 216 236 215 204 208 215 233 257 318 332 316 316 313 312 286 269 263 257 255 258 263 268 274 285 290 290 285 281 294 307 315 320 324 329 332 333 334 335 339
192 198 214 205 191 225 118 114 179 198 217 228 257 291 306 306 305 295 293 291 281 268 259 254 257 261 262 263 268 275 270 270 279 290 297 305 310 316 322 327 330 330 333 335
231 200 210 218 218 219 171 171 179 192 179 200 245 288 318 317 280 186 28 317 293 282 269 264 266 265 265 267 272 270 268 267 273 280 288 297 304 310 315 321 325 331 329 327
179 220 223 216 224 221 165 139 167 211 191 152 231 299 326 307 313 36 14 346 323 302 278 269 262 258 260 263 263 266 273 272 273 274 277 284 292 298 305 313 318 321 320 319
187 202 219 222 230 227 131 145 173 204 165 123 229 299 307 310 345 347 343 340 331 320 303 281 266 262 267 271 262 266 275 277 278 272 268 269 273 280 291 300 305 308 314 316
196 194 203 208 220 212 140 171 197 104 78 113 283 307 309 314 331 338 342 351 355 347 335 306 284 280 277 271 266 271 277 282 278 264 260 262 266 271 278 282 291 300 306 308
212 214 207 211 213 93 159 201 359 300 251 298 307 325 310 321 2 9 9 8 7 359 350 331 308 301 298 285 275 279 288 288 274 264 261 263 265 263 265 272 280 290 295 299
193 190 201 210 209 181 174 185 187 206 202 106 30 29 40 47 33 31 28 21 15 10 3 351 337 324 321 320 303 294 299 293 276 269 268 266 265 266 265 262 269 277 288 293
186 182 204 217 178 175 199 194 176 156 141 123 102 83 70 68 54 43 38 28 19 13 8 4 355 343 336 334 329 324 317 304 288 280 274 270 266 266 268 264 257 263 267 270
190 192 200 219 192 188 182 168 165 155 142 130 119 96 74 65 60 55 48 35 28 22 17 14 9 358 351 349 348 346 337 320 303 295 290 283 275 268 264 267 264 232 237 243
Height
1533 1532 1533 1534 1536 1537 1539 1541 1544 1548 1553 1553 1551 1550 1552 1556 1558 1558 1559 1559 1559 1559 1559 1558 1557 1555 1552 1550 1547 1544 1541 1537 1533 1530 1527 1524 1522 1519 1517 1515 1513 1511 1511 1510
1531 1533 1536 1537 1539 1540 1541 1544 1546 1551 1554 1552 1550 1548 1548 1553 1555 1556 1556 1557 1557 1558 1557 1557 1555 1553 1551 1549 1546 1543 1540 1536 1533 1529 1526 1523 1520 1517 1515 1512 1510 1509 1508 1507
1526 1536 1539 1539 1540 1541 1544 1545 1547 1550 1553 1552 1551 1546 1546 1549 1553 1554 1555 1556 1556 1556 1556 1555 1554 1552 1550 1547 1545 1542 1538 1535 1532 1528 1525 1522 1519 1516 1514 1511 1508 1506 1505 1504
1533 1538 1539 1539 1542 1541 1547 1548 1549 1552 1551 1548 1553 1549 1542 1545 1548 1550 1552 1553 1554 1554 1554 1553 1552 1551 1549 1546 1543 1541 1538 1535 1531 1528 1525 1521 1518 1515 1513 1510 1507 1505 1503 1501
1537 1539 1539 1541 1545 1545 1548 1550 1550 1551 1550 1549 1549 1550 1540 1544 1544 1545 1548 1550 1552 1552 1552 1552 1551 1549 1548 1545 1542 1539 1537 1534 1530 1527 1524 1521 1518 1515 1512 1509 1506 1503 1501 1499
1538 1542 1542 1544 1548 1549 1550 1551 1551 1550 1548 1552 1549 1550 1545 1540 1542 1544 1547 1549 1550 1551 1551 1550 1549 1548 1546 1544 1541 1538 1536 1533 1529 1526 1523 1520 1517 1514 1511 1508 1505 1502 1499 1497
1540 1542 1545 1546 1547 1550 1548 1548 1551 1551 1551 1548 1549 1551 1544 1540 1543 1544 1546 1547 1548 1549 1549 1548 1548 1547 1545 1543 1540 1537 1535 1532 1529 1526 1523 1520 1516 1513 1510 1506 1503 1500 1497 1495
1538 1544 1544 1545 1544 1545 1546 1546 1552 1554 1551 1546 1550 1548 1539 1541 1544 1545 1546 1546 1547 1547 1547 1547 1546 1545 1543 1541 1539 1536 1534 1531 1528 1525 1522 1519 1515 1512 1509 1506 1502 1499 1496 1493
1530 1542 1547 1547 1548 1545 1546 1546 1547 1548 1550 1550 1542 1542 1538 1540 1541 1543 1544 1544 1545 1545 1545 1545 1544 1543 1542 1540 1538 1535 1533 1530 1527 1524 1521 1518 1515 1511 1508 1505 1502 1498 1495 1492
1525 1540 1545 1548 1548 1550 1546 1547 1549 1549 1553 1549 1546 1543 1540 1537 1537 1539 1540 1541 1542 1543 1543 1543 1542 1541 1540 1538 1536 1534 1532 1529 1526 1523 1520 1517 1514 1510 1507 1504 1500 1497 1494 1490
1526 1534 1546 1546 1545 1544 1550 1550 1549 1549 1550 1551 1551 1544 1535 1537 1537 1538 1538 1539 1540 1540 1541 1541 1540 1539 1538 1536 1535 1533 1530 1528 1525 1522 1519 1516 1513 1509 1506 1503 1499 1496 1493 1489
1530 1529 1537 1542 1546 1547 1545 1545 1547 1550 1549 1551 1550 1544 1535 1537 1538 1537 1537 1537 1538 1538 1538 1538 1538 1537 1536 1534 1533 1531 1529 1527 1524 1521 1518 1515 1512 1509 1505 1502 1499 1495 1492 1488
1531 1532 1540 1546 1550 1549 1547 1548 1548 1547 1547 1548 1549 1541 1534 1535 1535 1535 1535 1535 1535 1536 1536 1536 1536 1535 1534 1532 1531 1529 1527 1525 1522 1519 1516 1514 1511 1508 1505 1501 1498 1495 1491 1488
1532 1529 1533 1538 1535 1537 1543 1548 1549 1547 1544 1543 1543 1537 1531 1531 1531 1532 1532 1532 1532 1533 1533 1533 1533 1533 1532 1530 1529 1527 1526 1523 1521 1518 1515 1513 1510 1507 1504 1501 1497 1494 1491 1487
1531 1528 1530 1534 1536 1537 1538 1541 1546 1544 1540 1540 1535 1536 1532 1530 1531 1531 1530 1530 1530 1530 1531 1531 1531 1530 1530 1529 1527 1526 1524 1522 1520 1517 1515 1512 1509 1506 1503 1500 1497 1493 1490 1487
1529 1529 1532 1536 1537 1538 1538 1537 1540 1542 1540 1539 1537 1535 1529 1530 1530 1529 1528 1528 1528 1528 1528 1528 1528 1528 1527 1527 1526 1524 1522 1521 1518 1516 1514 1511 1508 1505 1502 1499 1496 1493 1489 1486
1527 1528 1532 1532 1536 1537 1535 1528 1533 1534 1534 1534 1533 1530 1528 1528 1528 1527 1527 1526 1526 1526 1526 1526 1526 1526 1525 1525 1524 1522 1521 1519 1517 1515 1513 1510 1507 1504 1501 1498 1495 1492 1489 1486
1526 1527 1528 1529 1536 1541 1525 1524 1526 1529 1530 1530 1530 1529 1529 1528 1527 1526 1525 1525 1524 1524 1524 1524 1524 1524 1523 1522 1521 1520 1518 1517 1515 1514 1511 1509 1506 1503 1500 1497 1494 1491 1488 1485
1528 1528 1529 1529 1531 1527 1525 1524 1527 1527 1527 1527 1528 1528 1527 1526 1525 1524 1524 1523 1522 1522 1522 1522 1522 1521 1521 1520 1519 1518 1517 1516 1514 1512 1510 1508 1505 1502 1499 1497 1494 1490 1487 1484
1531 1528 1527 1530 1531 1530 1521 1522 1525 1527 1526 1525 1526 1526 1526 1525 1519 1522 1523 1521 1521 1520 1520 1520 1519 1519 1519 1518 1517 1516 1515 1514 1512 1510 1508 1506 1503 1501 1498 1495 1493 1490 1486 1483
1527 1528 1527 1527 1526 1517 1518 1523 1526 1528 1522 1524 1525 1525 1525 1523 1523 1524 1521 1520 1519 1519 1518 1518 1517 1517 1517 1516 1515 1514 1513 1512 1510 1508 1506 1503 1501 1499 1496 1494 1491 1488 1485 1482
1515 1520 1522 1522 1524 1519 1519 1520 1520 1519 1521 1522 1523 1524 1524 1523 1522 1521 1520 1519 1518 1517 1517 1516 1516 1515 1514 1513 1512 1511 1510 1509 1507 1505 1503 1501 1499 1497 1495 1492 1490 1487 1484 1481
1510 1509 1509 1510 1513 1515 1517 1518 1519 1519 1521 1521 1522 1522 1522 1522 1521 1520 1519 1518 1516 1516 1515 1514 1514 1513 1512 1511 1510 1508 1507 1506 1504 1502 1500 1499 1497 1495 1492 1490 1488 1486 1483 1480
1507 1512 1510 1510 1511 1515 1516 1517 1517 1518 1519 1519 1520 1520 1520 1520 1520 1519 1517 1516 1515 1514 1513 1512 1511 1510 1509 1508 1506 1505 1503 1502 1500 1498 1497 1496 1494 1492 1490 1488 1486 1483 1481 1479
1501 1507 1506 1505 1509 1514 1514 1514 1515 1516 1517 1518 1518 1518 1519 1519 1518 1517 1516 1515 1514 1513 1512 1511 1509 1508 1507 1505 1503 1501 1499 1498 1496 1494 1493 1492 1490 1488 1486 1484 1482 1480 1478 1476
1499 1499 1500 1497 1500 1504 1507 1510 1512 1514 1516 1517 1517 1517 1517 1517 1517 1516 1515 1514 1513 1512 1510 1509 1507 1506 1504 1502 1500 1498 1496 1494 1492 1490 1489 1487 1486 1484 1482 1480 1478 1476 1475 1473